Tracking 25710 objects as of 5-Jul-2022
HD Live streaming from Space Station
objects crossing your sky now

STARLINK-3680

Track STARLINK-3680 now!
10-day predictions
STARLINK-3680 is classified as:


NORAD ID: 51969
Int'l Code: 2022-025P
Perigee: 545.7 km
Apogee: 548.1 km
Inclination: 53.2 °
Period: 95.4 minutes
Semi major axis: 6917 km
RCS: Unknown
Launch date: March 9, 2022
Source: United States (US)
Launch site: AIR FORCE EASTERN TEST RANGE (AFETR)
aabbcc
Your satellite tracking list
Your tracking list is empty




NASA's NSSDC Master Catalog

Two Line Element Set (TLE):
1 51969U 22025P   22185.91667824 -.00007614  00000-0 -46100-3 0  9996
2 51969  53.2161 301.5371 0001748  45.7034  27.2700 15.08822460  1301
Source of the keplerian elements: AFSPC